Weather History for Szeged, Hungary

Change the Weather History Date:

Saturday, January 19, 2013

  Actual Average (LRAR) Record (LRAR)
Temperature  
Mean Temperature 28 °F -  
Max Temperature 30 °F 39 °F 56 °F (2014)
Min Temperature 26 °F 26 °F 17 °F (2003)
Degree Days  
Heating Degree Days 37    
Moisture  
Dew Point 26 °F    
Average Humidity 91    
Maximum Humidity 100    
Minimum Humidity 80    
Precipitation  
Precipitation 0.00 in 0.03 in - ()
Sea Level Pressure  
Sea Level Pressure 29.59 in    
Wind  
Wind Speed 5 mph ()    
Max Wind Speed 7 mph    
Max Gust Speed -    
Visibility 4.3 miles    
Events Snow    
Averages and records for this station are not official NWS values.
T = Trace of Precipitation, MM = Missing Value Source: Averaged Metar Reports

Daily Weather History Graph

Daily Weather History Graph

Search for Another Location

Airport:

Trip Planner

Search our weather history database for the weather conditions in past years. The results will help you decide how hot, cold, wet, or windy it might be!

Date:

Astronomy

Jan. 19, 2013 Rise Set
Actual Time 7:15 AM CET 4:25 PM CET
Civil Twilight 6:42 AM CET 4:58 PM CET
Nautical Twilight 6:05 AM CET 5:35 PM CET
Astronomical Twilight 5:29 AM CET 6:11 PM CET
Moon 10:46 AM CET (1/19) 12:25 AM CET (1/19)
Length of Visible Light 10h 16m
Length of Day
9h 09m
First Quarter, 54% of the Moon is Illuminated
Jan 19
First Quarter
Jan 27
Full
Feb 3
Last Quarter
Feb 10
New
Feb 17
First Quarter

Hourly Weather History & Observations

Time (CET) Temp. Windchill Dew Point Humidity Pressure Visibility Wind Dir Wind Speed Gust Speed Precip Events Conditions
12:45 AM 30.2 °F 24.3 °F 30.2 °F 100% 29.47 in - NNW 5.8 mph - N/A Snow Light Snow
1:00 AM 31 °F - 30 °F 96% 29.49 in 2 mi NNW 4.5 mph - - Snow Light Snow
1:45 AM 30.2 °F 24.3 °F 30.2 °F 100% 29.47 in 2.2 mi WNW 5.8 mph - N/A Snow Light Snow
2:45 AM 28.4 °F 22.2 °F 28.4 °F 100% 29.50 in 3.7 mi WNW 5.8 mph - N/A Snow Light Snow
3:45 AM 28.4 °F 22.2 °F 28.4 °F 100% 29.50 in 3.1 mi WNW 5.8 mph - N/A Snow Light Snow
4:45 AM 28.4 °F 21.2 °F 28.4 °F 100% 29.50 in 2.8 mi West 6.9 mph - N/A Snow Light Snow
5:15 AM 28.4 °F 22.2 °F 28.4 °F 100% 29.53 in 3.1 mi West 5.8 mph - N/A Snow Light Snow
5:45 AM 28.4 °F 23.3 °F 28.4 °F 100% 29.53 in 3.1 mi West 4.6 mph - N/A Snow Light Snow
6:15 AM 28.4 °F 22.2 °F 28.4 °F 100% 29.53 in 1.6 mi West 5.8 mph - N/A Snow Light Snow
6:45 AM 26.6 °F 19.1 °F 26.6 °F 100% 29.53 in 1.2 mi West 6.9 mph - N/A Snow Light Snow
7:00 AM 27 °F - 27 °F 98% 29.56 in 1 mi West 6.7 mph - - Snow Light Snow
7:15 AM 26.6 °F 20.0 °F 26.6 °F 100% 29.53 in 1.6 mi West 5.8 mph - N/A Snow Light Snow
7:45 AM 26.6 °F 20.0 °F 26.6 °F 100% 29.56 in 3.1 mi West 5.8 mph - N/A   Overcast
8:15 AM 26.6 °F 20.0 °F 26.6 °F 100% 29.56 in 4.3 mi West 5.8 mph - N/A   Overcast
8:45 AM 28.4 °F 23.3 °F 26.6 °F 93% 29.56 in 5.0 mi West 4.6 mph - N/A   Overcast
9:15 AM 28.4 °F 23.3 °F 26.6 °F 93% 29.56 in 5.0 mi West 4.6 mph - N/A   Overcast
9:45 AM 28.4 °F 23.3 °F 26.6 °F 93% 29.59 in 5.0 mi West 4.6 mph - N/A   Overcast
10:15 AM 28.4 °F 23.3 °F 26.6 °F 93% 29.59 in 5.0 mi WSW 4.6 mph - N/A   Overcast
10:45 AM 28.4 °F 23.3 °F 26.6 °F 93% 29.59 in 5.0 mi WSW 4.6 mph - N/A   Overcast
11:15 AM 28.4 °F 24.6 °F 24.8 °F 86% 29.59 in 5.0 mi West 3.5 mph - N/A   Overcast
11:45 AM 28.4 °F - 24.8 °F 86% 29.59 in 5.6 mi WSW 2.3 mph - N/A   Overcast
12:15 PM 28.4 °F - 24.8 °F 86% 29.59 in 6.2 mi West 2.3 mph - N/A   Overcast
12:45 PM 28.4 °F 24.6 °F 26.6 °F 93% 29.59 in 5.6 mi WSW 3.5 mph - N/A   Overcast
1:00 PM 29 °F - 26 °F 82% 29.61 in 6 mi WSW 2.2 mph - -   Partly Cloudy
1:15 PM 30.2 °F 26.7 °F 26.6 °F 86% 29.59 in 5.6 mi WSW 3.5 mph - N/A   Overcast
1:45 PM 30.2 °F 26.7 °F 24.8 °F 80% 29.59 in 5.6 mi SW 3.5 mph - N/A   Overcast
2:15 PM 30.2 °F 26.7 °F 24.8 °F 80% 29.62 in 6.2 mi SSW 3.5 mph - N/A   Overcast
2:45 PM 30.2 °F - 24.8 °F 80% 29.62 in 6.2 mi SSW 2.3 mph - N/A   Mostly Cloudy
3:15 PM 30.2 °F 26.7 °F 24.8 °F 80% 29.62 in - SSW 3.5 mph - N/A   Clear
3:45 PM 30.2 °F 26.7 °F 24.8 °F 80% 29.62 in - SSW 3.5 mph - N/A   Clear
4:15 PM 30.2 °F 26.7 °F 24.8 °F 80% 29.62 in 5.6 mi South 3.5 mph - N/A   Mostly Cloudy
4:45 PM 28.4 °F 24.6 °F 24.8 °F 86% 29.65 in 5.0 mi SSE 3.5 mph - N/A   Mostly Cloudy
5:15 PM 28.4 °F 24.6 °F 24.8 °F 86% 29.65 in 5.0 mi South 3.5 mph - N/A   Mostly Cloudy
5:45 PM 28.4 °F 24.6 °F 24.8 °F 86% 29.65 in 5.0 mi SSE 3.5 mph - N/A   Mostly Cloudy
6:15 PM 28.4 °F 23.3 °F 24.8 °F 86% 29.65 in 5.0 mi SSE 4.6 mph - N/A   Mostly Cloudy
6:45 PM 26.6 °F 20.0 °F 24.8 °F 93% 29.65 in 5.0 mi SSE 5.8 mph - N/A   Mostly Cloudy
7:00 PM 27 °F - 25 °F 88% 29.67 in 5 mi SSE 4.5 mph - -   Partly Cloudy
7:15 PM 26.6 °F 20.0 °F 24.8 °F 93% 29.65 in 5.6 mi SE 5.8 mph - N/A   Mostly Cloudy
7:45 PM 26.6 °F 20.0 °F 24.8 °F 93% 29.65 in - SSE 5.8 mph - N/A   Clear
8:15 PM 26.6 °F 20.0 °F 23.0 °F 86% 29.65 in - SSE 5.8 mph - N/A   Clear
8:45 PM 26.6 °F 20.0 °F 24.8 °F 93% 29.65 in - SSE 5.8 mph - N/A   Clear
9:45 PM 26.6 °F 20.0 °F 23.0 °F 86% 29.65 in - SSE 5.8 mph - N/A   Clear
10:45 PM 28.4 °F 22.2 °F 24.8 °F 86% 29.65 in - SE 5.8 mph - N/A   Clear
11:45 PM 30.2 °F 23.4 °F 24.8 °F 80% 29.65 in - SSE 6.9 mph - N/A   Clear